Time,TemperatureF,DewpointF,PressureIn,WindDirection,WindDirectionDegrees,WindSpeedMPH,WindSpeedGustMPH,Humidity,HourlyPrecipIn,Conditions,Clouds,dailyrainin,SoftwareType,DateUTC
2013-01-03 00:03:00,23.0,11.0,30.26,East,99,0.0,-999.0,60,-99.99,,,-99.99,,2013-01-03 05:03:00,
2013-01-03 00:12:00,23.0,12.0,30.26,SW,224,0.0,-999.0,61,-99.99,,,-99.99,,2013-01-03 05:12:00,
2013-01-03 00:23:00,23.0,12.0,30.26,SW,224,0.0,-999.0,61,-99.99,,,-99.99,,2013-01-03 05:23:00,
2013-01-03 00:33:00,22.0,11.0,30.26,SW,224,0.0,-999.0,63,-99.99,,,-99.99,,2013-01-03 05:33:00,
2013-01-03 00:42:00,22.0,11.0,30.26,SW,224,0.0,-999.0,63,-99.99,,,-99.99,,2013-01-03 05:42:00,
2013-01-03 00:53:00,22.0,12.0,30.25,SW,224,0.0,-999.0,64,-99.99,,,-99.99,,2013-01-03 05:53:00,
2013-01-03 01:02:00,21.0,11.0,30.25,SW,224,0.0,-999.0,66,-99.99,,,-99.99,,2013-01-03 06:02:00,
2013-01-03 01:12:00,21.0,11.0,30.25,SW,224,0.0,-999.0,66,-99.99,,,-99.99,,2013-01-03 06:12:00,
2013-01-03 01:22:00,21.0,11.0,30.25,SW,226,0.0,-999.0,66,-99.99,,,-99.99,,2013-01-03 06:22:00,
2013-01-03 01:33:00,21.0,11.0,30.24,SW,224,0.0,-999.0,66,-99.99,,,-99.99,,2013-01-03 06:33:00,
2013-01-03 01:42:00,21.0,11.0,30.24,SW,224,0.0,-999.0,66,-99.99,,,-99.99,,2013-01-03 06:42:00,
2013-01-03 01:53:00,21.0,12.0,30.24,SW,224,0.0,-999.0,68,-99.99,,,-99.99,,2013-01-03 06:53:00,
2013-01-03 02:02:00,21.0,12.0,30.24,SW,224,0.0,-999.0,69,-99.99,,,-99.99,,2013-01-03 07:02:00,
2013-01-03 02:12:00,21.0,12.0,30.24,SW,224,0.0,-999.0,69,-99.99,,,-99.99,,2013-01-03 07:12:00,
2013-01-03 02:22:00,21.0,13.0,30.25,SW,224,0.0,-999.0,70,-99.99,,,-99.99,,2013-01-03 07:22:00,
2013-01-03 02:33:00,20.0,12.0,30.25,SW,224,0.0,-999.0,70,-99.99,,,-99.99,,2013-01-03 07:33:00,
2013-01-03 02:42:00,20.0,12.0,30.25,SW,224,0.0,-999.0,70,-99.99,,,-99.99,,2013-01-03 07:42:00,
2013-01-03 02:53:00,20.0,12.0,30.25,SW,224,0.0,-999.0,72,-99.99,,,-99.99,,2013-01-03 07:53:00,
2013-01-03 03:02:00,20.0,13.0,30.24,SW,224,0.0,-999.0,74,-99.99,,,-99.99,,2013-01-03 08:02:00,
2013-01-03 03:12:00,20.0,13.0,30.24,SW,224,0.0,-999.0,74,-99.99,,,-99.99,,2013-01-03 08:12:00,
2013-01-03 03:22:00,20.0,13.0,30.26,SW,224,0.0,-999.0,74,-99.99,,,-99.99,,2013-01-03 08:22:00,
2013-01-03 03:33:00,20.0,13.0,30.25,SW,224,0.0,-999.0,75,-99.99,,,-99.99,,2013-01-03 08:33:00,
2013-01-03 03:43:00,20.0,13.0,30.25,SW,224,0.0,-999.0,75,-99.99,,,-99.99,,2013-01-03 08:43:00,
2013-01-03 03:53:00,20.0,14.0,30.25,SW,215,0.0,-999.0,76,-99.99,,,-99.99,,2013-01-03 08:53:00,
2013-01-03 04:02:00,19.0,13.0,30.25,SW,215,0.0,-999.0,76,-99.99,,,-99.99,,2013-01-03 09:02:00,
2013-01-03 04:12:00,19.0,13.0,30.25,SW,215,0.0,-999.0,76,-99.99,,,-99.99,,2013-01-03 09:12:00,
2013-01-03 04:22:00,19.0,13.0,30.24,SSW,206,0.0,-999.0,77,-99.99,,,-99.99,,2013-01-03 09:22:00,
2013-01-03 04:33:00,18.0,12.0,30.25,SSW,206,0.0,-999.0,78,-99.99,,,-99.99,,2013-01-03 09:33:00,
2013-01-03 04:43:00,18.0,12.0,30.25,SSW,206,0.0,-999.0,78,-99.99,,,-99.99,,2013-01-03 09:43:00,
2013-01-03 04:53:00,18.0,13.0,30.24,SSW,206,0.0,-999.0,79,-99.99,,,-99.99,,2013-01-03 09:53:00,
2013-01-03 05:02:00,18.0,13.0,30.24,SSW,206,0.0,-999.0,79,-99.99,,,-99.99,,2013-01-03 10:02:00,
2013-01-03 05:12:00,18.0,13.0,30.24,SSW,206,0.0,-999.0,79,-99.99,,,-99.99,,2013-01-03 10:12:00,
2013-01-03 05:23:00,17.0,12.0,30.24,SSW,206,0.0,-999.0,79,-99.99,,,-99.99,,2013-01-03 10:23:00,
2013-01-03 05:33:00,17.0,12.0,30.25,SSW,206,0.0,-999.0,80,-99.99,,,-99.99,,2013-01-03 10:33:00,
2013-01-03 05:43:00,17.0,12.0,30.25,SSW,206,0.0,-999.0,80,-99.99,,,-99.99,,2013-01-03 10:43:00,
2013-01-03 05:53:00,17.0,12.0,30.25,SSW,206,0.0,-999.0,81,-99.99,,,-99.99,,2013-01-03 10:53:00,
2013-01-03 06:02:00,16.0,11.0,30.25,SSW,206,0.0,-999.0,81,-99.99,,,-99.99,,2013-01-03 11:02:00,
2013-01-03 06:12:00,16.0,11.0,30.25,SSW,206,0.0,-999.0,81,-99.99,,,-99.99,,2013-01-03 11:12:00,
2013-01-03 06:23:00,16.0,11.0,30.25,SSW,206,0.0,-999.0,81,-99.99,,,-99.99,,2013-01-03 11:23:00,
2013-01-03 06:33:00,16.0,11.0,30.26,SSW,206,0.0,-999.0,81,-99.99,,,-99.99,,2013-01-03 11:33:00,
2013-01-03 06:43:00,16.0,11.0,30.26,SSW,206,0.0,-999.0,81,-99.99,,,-99.99,,2013-01-03 11:43:00,
2013-01-03 06:53:00,15.0,10.0,30.26,SSW,206,0.0,-999.0,81,-99.99,,,-99.99,,2013-01-03 11:53:00,
2013-01-03 07:03:00,15.0,10.0,30.25,SSW,206,0.0,-999.0,81,-99.99,,,-99.99,,2013-01-03 12:03:00,
2013-01-03 07:12:00,15.0,10.0,30.25,SSW,206,0.0,-999.0,81,-99.99,,,-99.99,,2013-01-03 12:12:00,
2013-01-03 07:22:00,15.0,10.0,30.25,SSW,206,0.0,-999.0,81,-99.99,,,-99.99,,2013-01-03 12:22:00,
2013-01-03 07:33:00,14.0,10.0,30.25,SSW,206,0.0,-999.0,82,-99.99,,,-99.99,,2013-01-03 12:33:00,
2013-01-03 07:42:00,14.0,10.0,30.25,SSW,206,0.0,-999.0,82,-99.99,,,-99.99,,2013-01-03 12:42:00,
2013-01-03 07:52:00,14.0,10.0,30.25,SSW,206,0.0,-999.0,82,-99.99,,,-99.99,,2013-01-03 12:52:00,
2013-01-03 08:02:00,14.0,10.0,30.25,SSW,206,0.0,-999.0,82,-99.99,,,-99.99,,2013-01-03 13:02:00,
2013-01-03 08:13:00,14.0,10.0,30.25,SSW,206,0.0,-999.0,82,-99.99,,,-99.99,,2013-01-03 13:13:00,
2013-01-03 08:22:00,14.0,10.0,30.26,SSW,206,0.0,-999.0,82,-99.99,,,-99.99,,2013-01-03 13:22:00,
2013-01-03 08:33:00,14.0,10.0,30.27,SSW,206,0.0,-999.0,83,-99.99,,,-99.99,,2013-01-03 13:33:00,
2013-01-03 08:42:00,14.0,10.0,30.27,SSW,206,0.0,-999.0,83,-99.99,,,-99.99,,2013-01-03 13:42:00,
2013-01-03 08:53:00,14.0,10.0,30.27,SSW,206,0.0,-999.0,83,-99.99,,,-99.99,,2013-01-03 13:53:00,
2013-01-03 09:03:00,14.0,10.0,30.27,SSW,206,0.0,-999.0,85,-99.99,,,-99.99,,2013-01-03 14:03:00,
2013-01-03 09:12:00,14.0,10.0,30.27,SSW,206,0.0,-999.0,85,-99.99,,,-99.99,,2013-01-03 14:12:00,
2013-01-03 09:23:00,15.0,12.0,30.27,SSW,206,0.0,-999.0,86,-99.99,,,-99.99,,2013-01-03 14:23:00,
2013-01-03 09:33:00,16.0,13.0,30.28,SSW,206,0.0,-999.0,87,-99.99,,,-99.99,,2013-01-03 14:33:00,
2013-01-03 09:43:00,16.0,13.0,30.28,SSW,206,0.0,-999.0,87,-99.99,,,-99.99,,2013-01-03 14:43:00,
2013-01-03 09:53:00,17.0,14.0,30.28,SSW,206,0.0,-999.0,88,-99.99,,,-99.99,,2013-01-03 14:53:00,
2013-01-03 10:03:00,19.0,16.0,30.28,SSW,206,0.0,-999.0,87,-99.99,,,-99.99,,2013-01-03 15:03:00,
2013-01-03 10:12:00,21.0,16.0,30.27,South,178,0.0,-999.0,80,-99.99,,,-99.99,,2013-01-03 15:12:00,
2013-01-03 10:23:00,21.0,16.0,30.27,South,178,0.0,-999.0,80,-99.99,,,-99.99,,2013-01-03 15:23:00,
2013-01-03 10:33:00,24.0,17.0,30.27,SSE,168,0.0,-999.0,73,-99.99,,,-99.99,,2013-01-03 15:33:00,
2013-01-03 10:43:00,24.0,17.0,30.27,SSE,168,0.0,-999.0,73,-99.99,,,-99.99,,2013-01-03 15:43:00,
2013-01-03 10:53:00,25.0,16.0,30.27,South,172,0.0,-999.0,68,-99.99,,,-99.99,,2013-01-03 15:53:00,
2013-01-03 11:03:00,27.0,16.0,30.27,South,188,0.0,-999.0,63,-99.99,,,-99.99,,2013-01-03 16:03:00,
2013-01-03 11:12:00,27.0,16.0,30.27,South,188,0.0,-999.0,63,-99.99,,,-99.99,,2013-01-03 16:12:00,
2013-01-03 11:23:00,28.0,16.0,30.26,South,175,0.0,-999.0,60,-99.99,,,-99.99,,2013-01-03 16:23:00,
2013-01-03 11:33:00,29.0,17.0,30.25,South,186,0.0,-999.0,60,-99.99,,,-99.99,,2013-01-03 16:33:00,
2013-01-03 11:43:00,29.0,17.0,30.25,South,186,0.0,-999.0,60,-99.99,,,-99.99,,2013-01-03 16:43:00,
2013-01-03 11:53:00,30.0,17.0,30.24,SSE,147,1.0,-999.0,57,-99.99,,,-99.99,,2013-01-03 16:53:00,
2013-01-03 12:03:00,30.0,16.0,30.22,South,178,1.0,-999.0,55,-99.99,,,-99.99,,2013-01-03 17:03:00,
2013-01-03 12:13:00,30.0,16.0,30.22,South,178,1.0,-999.0,55,-99.99,,,-99.99,,2013-01-03 17:13:00,
2013-01-03 12:23:00,31.0,16.0,30.22,South,179,2.0,-999.0,54,-99.99,,,-99.99,,2013-01-03 17:23:00,
2013-01-03 12:33:00,32.0,17.0,30.21,South,174,1.0,-999.0,53,-99.99,,,-99.99,,2013-01-03 17:33:00,
2013-01-03 12:43:00,32.0,17.0,30.21,South,174,1.0,-999.0,53,-99.99,,,-99.99,,2013-01-03 17:43:00,
2013-01-03 12:53:00,33.0,16.0,30.20,West,275,1.0,-999.0,50,-99.99,,,-99.99,,2013-01-03 17:53:00,
2013-01-03 13:03:00,34.0,16.0,30.19,SW,230,1.0,-999.0,48,-99.99,,,-99.99,,2013-01-03 18:03:00,
2013-01-03 13:13:00,34.0,16.0,30.19,SW,230,1.0,-999.0,48,-99.99,,,-99.99,,2013-01-03 18:13:00,
2013-01-03 13:22:00,35.0,17.0,30.19,WSW,258,2.0,-999.0,47,-99.99,,,-99.99,,2013-01-03 18:22:00,
2013-01-03 13:33:00,34.0,16.0,30.18,South,175,3.0,-999.0,47,-99.99,,,-99.99,,2013-01-03 18:33:00,
2013-01-03 13:43:00,34.0,16.0,30.18,South,175,3.0,-999.0,47,-99.99,,,-99.99,,2013-01-03 18:43:00,
2013-01-03 13:53:00,34.0,16.0,30.17,WSW,246,2.0,-999.0,47,-99.99,,,-99.99,,2013-01-03 18:53:00,
2013-01-03 14:03:00,35.0,17.0,30.16,West,261,1.0,-999.0,47,-99.99,,,-99.99,,2013-01-03 19:03:00,
2013-01-03 14:12:00,35.0,17.0,30.16,West,261,1.0,-999.0,47,-99.99,,,-99.99,,2013-01-03 19:12:00,
2013-01-03 14:56:00,35.0,17.0,30.16,South,176,2.0,-999.0,47,-99.99,,,-99.99,,2013-01-03 19:56:00,
2013-01-03 15:03:00,36.0,17.0,30.16,South,188,1.0,-999.0,45,-99.99,,,-99.99,,2013-01-03 20:03:00,
2013-01-03 15:13:00,36.0,17.0,30.16,South,188,1.0,-999.0,45,-99.99,,,-99.99,,2013-01-03 20:13:00,
2013-01-03 15:22:00,37.0,18.0,30.16,WSW,241,1.0,-999.0,45,-99.99,,,-99.99,,2013-01-03 20:22:00,
2013-01-03 15:33:00,36.0,17.0,30.16,SW,217,1.0,-999.0,46,-99.99,,,-99.99,,2013-01-03 20:33:00,
2013-01-03 15:42:00,36.0,17.0,30.16,SW,217,1.0,-999.0,46,-99.99,,,-99.99,,2013-01-03 20:42:00,
2013-01-03 15:53:00,36.0,17.0,30.16,SW,230,1.0,-999.0,46,-99.99,,,-99.99,,2013-01-03 20:53:00,
2013-01-03 16:02:00,36.0,17.0,30.16,SSE,161,1.0,-999.0,46,-99.99,,,-99.99,,2013-01-03 21:02:00,
2013-01-03 16:12:00,36.0,17.0,30.16,SSE,161,1.0,-999.0,46,-99.99,,,-99.99,,2013-01-03 21:12:00,
2013-01-03 16:23:00,36.0,17.0,30.16,South,176,1.0,-999.0,46,-99.99,,,-99.99,,2013-01-03 21:23:00,
2013-01-03 16:36:00,36.0,18.0,30.16,SSE,155,2.0,-999.0,47,-99.99,,,-99.99,,2013-01-03 21:36:00,
2013-01-03 16:49:00,36.0,18.0,30.16,SSE,155,2.0,-999.0,47,-99.99,,,-99.99,,2013-01-03 21:49:00,
2013-01-03 17:03:00,34.0,17.0,30.17,South,186,1.0,-999.0,50,-99.99,,,-99.99,,2013-01-03 22:03:00,
2013-01-03 17:12:00,34.0,17.0,30.17,South,186,1.0,-999.0,50,-99.99,,,-99.99,,2013-01-03 22:12:00,
2013-01-03 17:22:00,33.0,17.0,30.17,South,184,1.0,-999.0,51,-99.99,,,-99.99,,2013-01-03 22:22:00,
2013-01-03 17:33:00,33.0,17.0,30.17,South,174,1.0,-999.0,52,-99.99,,,-99.99,,2013-01-03 22:33:00,
2013-01-03 17:42:00,33.0,17.0,30.17,South,174,1.0,-999.0,52,-99.99,,,-99.99,,2013-01-03 22:42:00,
2013-01-03 17:52:00,32.0,16.0,30.17,South,191,1.0,-999.0,52,-99.99,,,-99.99,,2013-01-03 22:52:00,
2013-01-03 18:03:00,32.0,17.0,30.18,SSW,212,2.0,-999.0,53,-99.99,,,-99.99,,2013-01-03 23:03:00,
2013-01-03 18:12:00,32.0,17.0,30.18,SSW,212,2.0,-999.0,53,-99.99,,,-99.99,,2013-01-03 23:12:00,
2013-01-03 18:22:00,32.0,17.0,30.18,SSW,205,2.0,-999.0,53,-99.99,,,-99.99,,2013-01-03 23:22:00,
2013-01-03 18:33:00,32.0,17.0,30.18,SSW,192,2.0,-999.0,54,-99.99,,,-99.99,,2013-01-03 23:33:00,
2013-01-03 18:43:00,32.0,17.0,30.18,SSW,192,2.0,-999.0,54,-99.99,,,-99.99,,2013-01-03 23:43:00,
2013-01-03 18:52:00,32.0,17.0,30.18,SSW,195,0.0,-999.0,54,-99.99,,,-99.99,,2013-01-03 23:52:00,
2013-01-03 19:03:00,32.0,17.0,30.19,SSW,193,0.0,-999.0,53,-99.99,,,-99.99,,2013-01-04 00:03:00,
2013-01-03 19:13:00,32.0,17.0,30.19,SSW,193,0.0,-999.0,53,-99.99,,,-99.99,,2013-01-04 00:13:00,
2013-01-03 19:22:00,31.0,17.0,30.19,SSW,199,0.0,-999.0,56,-99.99,,,-99.99,,2013-01-04 00:22:00,
2013-01-03 19:32:00,31.0,17.0,30.20,SW,219,0.0,-999.0,55,-99.99,,,-99.99,,2013-01-04 00:32:00,
2013-01-03 19:42:00,31.0,17.0,30.20,SW,219,0.0,-999.0,55,-99.99,,,-99.99,,2013-01-04 00:42:00,
2013-01-03 19:53:00,31.0,17.0,30.20,SSE,162,0.0,-999.0,56,-99.99,,,-99.99,,2013-01-04 00:53:00,
2013-01-03 20:02:00,30.0,16.0,30.20,SSE,154,1.0,-999.0,56,-99.99,,,-99.99,,2013-01-04 01:02:00,
2013-01-03 20:12:00,30.0,16.0,30.20,SSE,154,1.0,-999.0,56,-99.99,,,-99.99,,2013-01-04 01:12:00,
2013-01-03 20:22:00,30.0,17.0,30.20,South,185,2.0,-999.0,57,-99.99,,,-99.99,,2013-01-04 01:22:00,
2013-01-03 20:33:00,30.0,16.0,30.20,SSE,160,0.0,-999.0,56,-99.99,,,-99.99,,2013-01-04 01:33:00,
2013-01-03 20:42:00,30.0,16.0,30.20,SSE,160,0.0,-999.0,56,-99.99,,,-99.99,,2013-01-04 01:42:00,
2013-01-03 20:53:00,30.0,17.0,30.19,WSW,241,0.0,-999.0,57,-99.99,,,-99.99,,2013-01-04 01:53:00,
2013-01-03 21:02:00,30.0,17.0,30.19,SW,227,1.0,-999.0,58,-99.99,,,-99.99,,2013-01-04 02:02:00,
2013-01-03 21:12:00,30.0,17.0,30.19,SW,227,1.0,-999.0,58,-99.99,,,-99.99,,2013-01-04 02:12:00,
2013-01-03 21:22:00,31.0,17.0,30.20,West,263,3.0,-999.0,55,-99.99,,,-99.99,,2013-01-04 02:22:00,
2013-01-03 21:33:00,32.0,17.0,30.19,WSW,239,4.0,-999.0,53,-99.99,,,-99.99,,2013-01-04 02:33:00,
2013-01-03 21:42:00,32.0,17.0,30.19,WSW,239,4.0,-999.0,53,-99.99,,,-99.99,,2013-01-04 02:42:00,
2013-01-03 21:53:00,33.0,17.0,30.19,West,263,2.0,-999.0,52,-99.99,,,-99.99,,2013-01-04 02:53:00,
2013-01-03 22:03:00,32.0,17.0,30.19,WSW,258,4.0,-999.0,53,-99.99,,,-99.99,,2013-01-04 03:03:00,
2013-01-03 22:12:00,32.0,17.0,30.19,WSW,258,4.0,-999.0,53,-99.99,,,-99.99,,2013-01-04 03:12:00,
2013-01-03 22:22:00,32.0,17.0,30.19,WSW,257,3.0,-999.0,53,-99.99,,,-99.99,,2013-01-04 03:22:00,
2013-01-03 22:32:00,32.0,17.0,30.19,SSE,164,2.0,-999.0,54,-99.99,,,-99.99,,2013-01-04 03:32:00,
2013-01-03 22:42:00,32.0,17.0,30.19,SSE,164,2.0,-999.0,54,-99.99,,,-99.99,,2013-01-04 03:42:00,
2013-01-03 22:52:00,32.0,18.0,30.18,West,261,0.0,-999.0,56,-99.99,,,-99.99,,2013-01-04 03:52:00,
2013-01-03 23:02:00,32.0,18.0,30.19,West,261,0.0,-999.0,55,-99.99,,,-99.99,,2013-01-04 04:02:00,
2013-01-03 23:12:00,32.0,18.0,30.19,West,261,0.0,-999.0,55,-99.99,,,-99.99,,2013-01-04 04:12:00,
2013-01-03 23:22:00,31.0,17.0,30.19,West,275,1.0,-999.0,56,-99.99,,,-99.99,,2013-01-04 04:22:00,
2013-01-03 23:32:00,31.0,17.0,30.19,West,272,0.0,-999.0,56,-99.99,,,-99.99,,2013-01-04 04:32:00,
2013-01-03 23:42:00,31.0,17.0,30.19,West,272,0.0,-999.0,56,-99.99,,,-99.99,,2013-01-04 04:42:00,
2013-01-03 23:53:00,32.0,18.0,30.19,West,264,2.0,-999.0,56,-99.99,,,-99.99,,2013-01-04 04:53:00,